Regional Weather Roundup
Issued by NWS Green Bay, WI

Home | Current Version | Previous Version | Graphics & Text | Print | Product List | Glossary Off
Versions: 1 2 3 4 5 6 7 8 9 10 11 12 13 14 15 16 17 18 19 20 21 22 23 24 25 26 27 28 29 30 31 32 33 34 35 36 37 38 39 40 41 42 43 44 45 46 47 48 49 50

000
ASUS43 KGRB 262200
RWRGRB

NORTH-CENTRAL AND NORTHEAST WISCONSIN REGIONAL WEATHER ROUNDUP
NATIONAL WEATHER SERVICE GREEN BAY WI
500 PM CDT SUN MAR 26 2017

WIZ005-009-010>012-018-019-262300-
NORTH CENTRAL WISCONSIN

CITY           SKY/WX    TMP DP  RH WIND       PRES   REMARKS
IRONWOOD       CLOUDY    35  31  85 N7        29.91R
MANITOWISH WTR NOT AVBL
ARBOR VITAE    NOT AVBL
EAGLE RIVER    NOT AVBL
LAND O LAKES   NOT AVBL
RHINELANDER    LGT RAIN  39  38  96 CALM      29.85R FOG
PHILLIPS       NOT AVBL
ANTIGO         NOT AVBL
TOMAHAWK       NOT AVBL
MERRILL        NOT AVBL
$$

WIZ013-073-262300-
NORTHEAST WISCONSIN

CITY           SKY/WX    TMP DP  RH WIND       PRES   REMARKS
IRON MOUNTAIN  CLOUDY    37  33  85 NE3       29.86R
MARINETTE        N/A    N/A N/A N/A MISG        N/A
$$

WIZ017-030-035>037-045-262300-
CENTRAL WISCONSIN

CITY           SKY/WX    TMP DP  RH WIND       PRES   REMARKS
MEDFORD        NOT AVBL
WAUSAU         LGT RAIN  39  38  96 E3        29.84S
MOSINEE        RAIN      37  37 100 CALM      29.86S
MARSHFIELD     LGT RAIN  40  37  89 CALM      29.84R FOG
WISC RAPIDS    LGT RAIN  40  39  97 NE5       29.87S FOG
STEVENS POINT  NOT AVBL
WAUPACA        NOT AVBL
SHAWANO        NOT AVBL
CLINTONVILLE   NOT AVBL
WAUTOMA        LGT RAIN  40  38  93 N5        29.85F
$$

WIZ038-039-048-051-262300-
FOX VALLEY

CITY           SKY/WX    TMP DP  RH WIND       PRES   REMARKS
NWS GREEN BAY  CLOUDY    38  38 100 NE9       29.85F
APPLETON       LGT RAIN  39  39 100 NE7       29.83F
OSHKOSH        LGT RAIN  41  39  93 N8        29.83F
FOND DU LAC    LGT RAIN  42  39  89 N8        29.83S
$$

WIZ022-050-052-262300-
EAST CENTRAL WISCONSIN

CITY           SKY/WX    TMP DP  RH WIND       PRES   REMARKS
EPHRAIM        NOT AVBL
WASHINGTON ISL NOT AVBL
STURGEON BAY   MIX PCPN  37  36  96 NW6       29.86S FOG
MANITOWOC      NOT AVBL
SHEBOYGAN      LGT RAIN  41  39  93 NE8       29.83S FOG
$$

LMZ563-521-522-541>543-262300-
LAKESHORE

STATION/POSITION TIME  TEMP    WIND        PRES    VSBY  WAVE
                       AIR SEA DIR/SP/G                  HT/PER
                 (UTC) (F)     (DEG/KT/KT) (MB)    (MI)  (FT/S)
SHEBOYGAN LKSHOR 2100   37      10/  9/ 10 1010.6F
KEWAUNEE LKSHORE 2130   37      30/  7/  9 1010.5S
NORTHPORT PIER   2140   35      20/  4/  6 1011.5F
CHAMBERS ISLAND  2140   33      10/  8/ 11 1011.2F
MENOMINEE LKSHOR 2130   33      10/ 13/ 15 1010.8F
$$



USA.gov is the U.S. government's official web portal to all federal, state and local government web resources and services.